EW0706 Weather Reports


Display with metric or nautical units.
time (UTC)temp
F
wind
direction
speed
MPH
gust
MPH
rain 1hr
in
rain 24hr
in
rain mn
in
humidity
%
barometer
mb
20260505232120 77 0.0 0.0 0.00 0.00 0.00 23 1007.4
20260505231119 77 0.0 0.0 0.00 0.00 0.00 23 1007.4
20260505230118 78 0.0 0.0 0.00 0.00 0.00 22 1007.4
20260505225117 76 0.0 0.0 0.00 0.00 0.00 24 1007.4
20260505224116 77 0.0 0.0 0.00 0.00 0.00 25 1007.4
20260505223115 77 0.0 0.0 0.00 0.00 0.00 24 1007.8
20260505222114 77 0.0 0.0 0.00 0.00 0.00 24 1007.8
20260505221042 77 0.0 0.0 0.00 0.00 0.00 25 1007.8
20260505220042 77 0.0 0.0 0.00 0.00 0.00 25 1008.1
20260505215040 76 0.0 0.0 0.00 0.00 0.00 25 1007.8
20260505213937 76 0.0 0.0 0.00 0.00 0.00 25 1008.1
20260505212936 76 0.0 0.0 0.00 0.00 0.00 25 1008.1
20260505211935 77 0.0 0.0 0.00 0.00 0.00 25 1008.1
20260505210934 77 0.0 0.0 0.00 0.00 0.00 25 1008.1
20260505205933 77 0.0 0.0 0.00 0.00 0.00 25 1008.5
20260505204901 78 0.0 0.0 0.00 0.00 0.00 26 1008.5
20260505203900 77 0.0 0.0 0.00 0.00 0.00 26 1008.5
20260505202828 76 0.0 0.0 0.00 0.00 0.00 27 1008.5
20260505201827 76 0.0 0.0 0.00 0.00 0.00 27 1008.5
20260505200825 76 0.0 0.0 0.00 0.00 0.00 28 1008.5
20260505195824 76 0.0 0.0 0.00 0.00 0.00 28 1008.9
20260505194823 76 0.0 0.0 0.00 0.00 0.00 28 1008.9
20260505193822 76 0.0 0.0 0.00 0.00 0.00 29 1008.9
20260505192821 76 0.0 0.0 0.00 0.00 0.00 32 1008.9
20260505191749 76 0.0 0.0 0.00 0.00 0.00 32 1009.2
20260505190749 76 0.0 0.0 0.00 0.00 0.00 32 1009.2
20260505185717 75 0.0 0.0 0.00 0.00 0.00 34 1009.2
20260505184715 75 0.0 0.0 0.00 0.00 0.00 34 1009.2
20260505183714 75 0.0 0.0 0.00 0.00 0.00 35 1009.2
20260505182713 74 0.0 0.0 0.00 0.00 0.00 35 1009.6
20260505181712 74 0.0 0.0 0.00 0.00 0.00 35 1009.6
20260505180711 74 0.0 0.0 0.00 0.00 0.00 37 1009.6
20260505175710 73 0.0 0.0 0.00 0.00 0.00 38 1009.6
20260505174710 73 0.0 0.0 0.00 0.00 0.00 38 1009.6
20260505173638 72 0.0 0.0 0.00 0.00 0.00 40 1009.5
20260505172606 72 0.0 0.0 0.00 0.00 0.00 40 1009.5
20260505171604 71 0.0 0.0 0.00 0.00 0.00 43 1009.5
20260505170602 71 0.0 0.0 0.00 0.00 0.00 43 1009.5
20260505165602 70 0.0 0.0 0.00 0.00 0.00 44 1009.5
20260505164601 71 0.0 0.0 0.00 0.00 0.00 43 1009.8
20260505163600 70 0.0 0.0 0.00 0.00 0.00 44 1009.8
20260505162559 69 0.0 0.0 0.00 0.00 0.00 46 1009.5
20260505161558 69 0.0 0.0 0.00 0.00 0.00 46 1009.8
20260505160455 69 0.0 0.0 0.00 0.00 0.00 47 1009.8
20260505153348 70 0.0 0.0 0.00 0.00 0.00 44 1009.9
20260505152347 71 0.0 0.0 0.00 0.00 0.00 43 1009.6
20260505151346 71 0.0 0.0 0.00 0.00 0.00 44 1009.6
20260505150344 70 0.0 0.0 0.00 0.00 0.00 45 1009.5
20260505140338 67 0.0 0.0 0.00 0.00 0.00 49 1009.4
20260505130128 66 0.0 0.0 0.00 0.00 0.00 49 1009.1
20260505124125 66 0.0 0.0 0.00 0.00 0.00 49 1008.8
20260505123123 66 0.0 0.0 0.00 0.00 0.00 49 1008.8
20260505122122 66 0.0 0.0 0.00 0.00 0.00 49 1008.5
20260505121121 66 0.0 0.0 0.00 0.00 0.00 49 1008.5
20260505120121 66 0.0 0.0 0.00 0.00 0.00 48 1008.5
20260505115120 66 0.0 0.0 0.00 0.00 0.00 48 1008.5
20260505114048 66 0.0 0.0 0.00 0.00 0.00 47 1008.5
20260505113047 67 0.0 0.0 0.00 0.00 0.00 47 1008.5
20260505112046 67 0.0 0.0 0.00 0.00 0.00 46 1008.5
20260505111045 67 0.0 0.0 0.00 0.00 0.00 45 1008.5
20260505101907 68 0.0 0.0 0.00 0.00 0.00 44 1009.2
20260505100905 68 0.0 0.0 0.00 0.00 0.00 44 1008.9
20260505095904 69 0.0 0.0 0.00 0.00 0.00 44 1009.2
20260505094904 69 0.0 0.0 0.00 0.00 0.00 43 1009.2
20260505093902 69 0.0 0.0 0.00 0.00 0.00 42 1009.2
20260505092901 69 0.0 0.0 0.00 0.00 0.00 41 1009.2
20260505091900 69 0.0 0.0 0.00 0.00 0.00 40 1009.2
20260505090859 69 0.0 0.0 0.00 0.00 0.00 40 1009.2
20260505085858 69 0.0 0.0 0.00 0.00 0.00 40 1009.2
20260505084857 70 0.0 0.0 0.00 0.00 0.00 40 1009.5
20260505083856 70 0.0 0.0 0.00 0.00 0.00 39 1009.6
20260505082855 70 0.0 0.0 0.00 0.00 0.00 38 1009.9
20260505081853 70 0.0 0.0 0.00 0.00 0.00 38 1009.9
20260505080852 70 0.0 0.0 0.00 0.00 0.00 37 1009.9
20260505075850 71 0.0 0.0 0.00 0.00 0.00 37 1009.9
20260505074818 71 0.0 0.0 0.00 0.00 0.00 36 1009.9
20260505073817 71 0.0 0.0 0.00 0.00 0.00 36 1009.9
20260505072817 71 0.0 0.0 0.00 0.00 0.00 36 1009.6
20260505071744 71 0.0 0.0 0.00 0.00 0.00 35 1009.9
20260505070743 71 0.0 0.0 0.00 0.00 0.00 35 1009.9
20260505065742 72 0.0 0.0 0.00 0.00 0.00 34 1010.3
20260505064741 72 0.0 0.0 0.00 0.00 0.00 33 1009.9
20260505063740 72 0.0 0.0 0.00 0.00 0.00 32 1009.9
20260505062738 72 0.0 0.0 0.00 0.00 0.00 32 1009.9
20260505061737 73 0.0 0.0 0.00 0.00 0.00 31 1009.6
20260505060736 73 0.0 0.0 0.00 0.00 0.00 32 1009.6
20260505055735 73 0.0 0.0 0.00 0.00 0.00 35 1009.3
20260505054734 73 0.0 0.0 0.00 0.00 0.00 35 1009.3
20260505053733 74 0.0 0.0 0.00 0.00 0.00 34 1009.3
20260505052732 74 0.0 0.0 0.00 0.00 0.00 35 1009.6
20260505051626 74 0.0 0.0 0.00 0.00 0.00 35 1009.6
20260505050554 74 0.0 0.0 0.00 0.00 0.00 35 1010.0
20260505041518 75 0.0 0.0 0.00 0.00 0.00 37 1009.7
20260505040446 75 0.0 0.0 0.00 0.00 0.00 37 1009.7
20260505035445 75 0.0 0.0 0.00 0.00 0.00 36 1009.7
20260505034443 75 0.0 0.0 0.00 0.00 0.00 36 1009.4
20260505033442 75 0.0 0.0 0.00 0.00 0.00 36 1009.4
20260505032441 75 0.0 0.0 0.00 0.00 0.00 36 1009.4
20260505031440 75 0.0 0.0 0.00 0.00 0.00 36 1009.0
20260505030438 75 0.0 0.0 0.00 0.00 0.00 36 1008.7
20260505025438 75 0.0 0.0 0.00 0.00 0.00 36 1008.7
20260505024437 76 0.0 0.0 0.00 0.00 0.00 35 1008.7
20260505023436 76 0.0 0.0 0.00 0.00 0.00 35 1009.0
20260505022435 76 0.0 0.0 0.00 0.00 0.00 34 1008.7
20260505021434 76 0.0 0.0 0.00 0.00 0.00 34 1008.7
20260505020433 76 0.0 0.0 0.00 0.00 0.00 34 1008.7
20260505015432 77 0.0 0.0 0.00 0.00 0.00 33 1008.7
20260505014431 77 0.0 0.0 0.00 0.00 0.00 32 1008.7
20260505013430 77 0.0 0.0 0.00 0.00 0.00 32 1008.4
20260505012357 78 0.0 0.0 0.00 0.00 0.00 32 1008.7
20260505011355 78 0.0 0.0 0.00 0.00 0.00 32 1008.7
20260505010323 78 0.0 0.0 0.00 0.00 0.00 32 1008.7
20260505005251 79 0.0 0.0 0.00 0.00 0.00 32 1008.7
20260505004249 79 0.0 0.0 0.00 0.00 0.00 31 1008.7
20260505003216 79 0.0 0.0 0.00 0.00 0.00 31 1008.8
20260505002215 79 0.0 0.0 0.00 0.00 0.00 32 1008.8
20260505001142 79 0.0 0.0 0.00 0.00 0.00 32 1008.8
20260505000141 79 0.0 0.0 0.00 0.00 0.00 32 1008.8
20260504235140 79 0.0 0.0 0.00 0.00 0.00 32 1009.1
20260504234140 79 0.0 0.0 0.00 0.00 0.00 32 1009.1
20260504233005 78 0.0 0.0 0.00 0.00 0.00 32 1009.1